[[{"header":{"parameterUnit":"m.s-1","parameterCategory":1,"la1":30.2991,"la2":30.254,"lo1":-89.0895,"lo2":-89.0444,"dy":0.0017,"dx":0.0017,"nx":28,"ny":28,"refTime":"2024-03-29T09:00:00:Z","depth":0,"parameterNumber":2,"parameterNumberName":"U-component_of_WINDS"},"data":[0,0,0,0,0,0,0,0,0,0,0,0,0,0,0,0,0,0,0,0,0,0,0,0,0,0,0,0,0,0,0,0,0,0,0,0,0,0,0,0,0,0,0,0,0,0,0,0,0,0,0,0,0,0,0,0,0,0,-1.1786,-1.1786,0,-1.1844,-1.1844,-1.1845,-1.1861,-1.1861,-1.186,-1.186,-1.192,-1.1921,-1.1923,0,0,0,0,0,0,0,0,0,0,0,0,0,-1.1688,-1.169,-1.1786,-1.1786,-1.1787,-1.1844,-1.1844,-1.1845,-1.1861,-1.1861,-1.186,-1.186,-1.1919,-1.1921,-1.1923,0,0,0,0,0,0,0,0,0,0,0,0,0,-1.1737,-1.1691,-1.1785,-1.1802,-1.1804,-1.1843,-1.1844,-1.1845,-1.1861,-1.1861,-1.186,-1.186,-1.1918,-1.1921,-1.1924,-1.1951,0,0,-1.1932,-1.1934,0,0,0,0,0,0,0,0,-1.1734,-1.1741,-1.1799,-1.1801,-1.1803,-1.1845,-1.1832,-1.1881,-1.1861,-1.1839,-1.186,-1.1859,-1.1895,-1.19,-1.1912,-1.1954,-1.1957,-1.1933,-1.1934,-1.1936,-1.1936,0,0,0,0,0,0,0,-1.1731,-1.1738,-1.1809,-1.1799,-1.1802,-1.1806,-1.1813,-1.1841,-1.1869,-1.1841,-1.1843,-1.1849,-1.1896,-1.1909,-1.1913,-1.1958,-1.1933,-1.1935,-1.1937,-1.1938,-1.2025,-1.2026,0,0,0,0,0,0,-1.1725,-1.1735,-1.1807,-1.181,-1.1767,-1.1808,-1.1815,-1.1832,-1.1869,-1.1874,-1.185,-1.185,-1.1904,-1.191,-1.1915,-1.195,-1.1936,-1.1938,-1.194,-1.2025,-1.2026,-1.2026,0,0,0,0,0,0,-1.1722,-1.1731,-1.1804,-1.1773,-1.1783,-1.1811,-1.1829,-1.1833,-1.1846,-1.1875,-1.188,-1.1858,-1.1904,-1.1911,-1.1942,-1.1952,-1.194,-1.1942,-1.2024,-1.2025,-1.2026,-1.2019,0,0,0,0,0,0,-1.172,-1.173,-1.1741,-1.1773,-1.1784,-1.183,-1.1829,-1.1835,-1.1851,-1.1852,-1.1884,-1.1889,-1.1904,-1.1938,-1.1945,-1.1956,-1.1944,-1.2023,-1.2025,-1.2026,-1.2019,-1.202,-1.2021,0,0,0,0,0,-1.1716,-1.1737,-1.1741,-1.175,-1.1798,-1.1831,-1.1837,-1.1854,-1.1852,-1.1863,-1.1882,-1.1888,-1.195,-1.1941,-1.1949,-1.1961,-1.2023,-1.2024,-1.2026,-1.2018,-1.202,-1.2021,0,0,0,0,0,0,-1.1705,-1.1741,-1.1747,-1.1778,-1.1801,-1.1833,-1.1848,-1.1855,-1.188,-1.1879,-1.19,-1.1907,-1.1936,-1.1952,-1.1941,-1.199,-1.1987,-1.199,-1.1978,-1.198,-1.1981,-1.1976,-1.1947,0,0,0,0,0,-1.1706,-1.1729,-1.176,-1.1785,-1.1796,-1.182,-1.1835,-1.1846,-1.187,-1.188,-1.1901,-1.1925,-1.195,-1.1966,-1.199,-1.2021,-1.2028,-1.2033,-1.2034,-1.2035,-1.2037,-1.2055,-1.2057,-1.2031,-1.2031,-1.2031,0,0,-1.1708,-1.1731,-1.1744,-1.1783,-1.1802,-1.1825,-1.1828,-1.1853,-1.187,-1.1884,-1.1914,-1.1931,-1.1958,-1.1989,-1.2004,-1.2003,-1.2046,-1.2037,-1.2037,-1.2039,-1.2056,-1.2059,-1.2061,-1.2032,-1.2032,-1.2031,0,0,-1.1725,-1.1745,-1.1767,-1.1786,-1.1815,-1.1831,-1.1837,-1.1868,-1.1879,-1.191,-1.1921,-1.1942,-1.1984,-1.2004,-1.2019,-1.2043,-1.205,-1.205,-1.2056,-1.2072,-1.2074,-1.2076,-1.2084,-1.2087,-1.2053,-1.2053,-1.2053,0,-1.1724,-1.176,-1.1778,-1.1802,-1.1819,-1.1832,-1.1855,-1.1873,-1.1909,-1.192,-1.1919,-1.1972,-1.1992,-1.2027,-1.2033,-1.2045,-1.2052,-1.2046,-1.2072,-1.2074,-1.2076,-1.2084,-1.2087,-1.2052,-1.2052,-1.2052,-1.2052,0,-1.1758,-1.1782,-1.1797,-1.1831,-1.1849,-1.1873,-1.1894,-1.1911,-1.192,-1.1936,-1.1967,-1.1992,-1.2021,-1.2031,-1.204,-1.2067,-1.2066,-1.2068,-1.2066,-1.2078,-1.2086,-1.2089,-1.2052,-1.2052,-1.2052,-1.2052,0,0,-1.1768,-1.1812,-1.1817,-1.1832,-1.1865,-1.1884,-1.1909,-1.1937,-1.1951,-1.1975,-1.1996,-1.2031,-1.2034,-1.2051,-1.2063,-1.2078,-1.2094,-1.2078,-1.2079,-1.208,-1.2125,-1.2123,-1.2126,-1.2099,-1.21,-1.2101,-1.2123,0,-1.1789,-1.1832,-1.1849,-1.1884,-1.1907,-1.192,-1.1942,-1.1964,-1.198,-1.2001,-1.2019,-1.2043,-1.2045,-1.2055,-1.207,-1.2089,-1.2104,-1.2088,-1.2118,-1.2119,-1.211,-1.213,-1.2128,-1.2147,-1.2126,-1.2126,-1.2127,0,-1.1818,-1.1842,-1.1879,-1.1909,-1.1919,-1.1938,-1.1966,-1.1986,-1.2012,-1.2022,-1.2042,-1.2053,-1.2079,-1.2075,-1.2111,-1.21,-1.2113,-1.2124,-1.2125,-1.2128,-1.2123,-1.2133,-1.2154,-1.2157,-1.2132,-1.2131,-1.2131,0,-1.1821,-1.1863,-1.1891,-1.1903,-1.1939,-1.1952,-1.1967,-1.1993,-1.2009,-1.2033,-1.2044,-1.2071,-1.2085,-1.2106,-1.2124,-1.212,-1.2158,-1.2156,-1.2167,-1.2167,-1.2174,-1.2173,-1.2197,-1.2184,-1.2184,-1.2184,-1.2184,0,-1.1842,-1.1864,-1.1893,-1.191,-1.1935,-1.1954,-1.1979,-1.1995,-1.2018,-1.2038,-1.2052,-1.2071,-1.2094,-1.2116,-1.213,-1.2157,-1.2164,-1.2173,-1.2176,-1.2171,-1.217,-1.218,-1.2179,-1.2185,-1.2184,-1.2184,-1.2184,0,-1.1849,-1.1869,-1.19,-1.1932,-1.194,-1.1957,-1.1984,-1.2001,-1.2017,-1.2043,-1.205,-1.2076,-1.2102,-1.2123,-1.2157,-1.2167,-1.2195,-1.2199,-1.2186,-1.2188,-1.2198,-1.2197,-1.2228,-1.2233,-1.2217,-1.2218,-1.2218,0,-1.1861,-1.1878,-1.1911,-1.1926,-1.1941,-1.1964,-1.1981,-1.2001,-1.2017,-1.2048,-1.2061,-1.2089,-1.2111,-1.2153,-1.2175,-1.2201,-1.2206,-1.2215,-1.221,-1.2204,-1.2205,-1.2204,-1.2205,-1.2215,-1.2215,-1.2215,-1.2216,0,-1.1879,-1.1888,-1.1911,-1.1938,-1.1957,-1.1979,-1.2001,-1.2012,-1.2036,-1.2054,-1.2081,-1.2099,-1.2134,-1.2161,-1.219,-1.2206,-1.2214,-1.2217,-1.2221,-1.2216,-1.2207,-1.2211,-1.2188,-1.2216,-1.2216,-1.2216,-1.2216,-1.2216,-1.1889,-1.1904,-1.193,-1.1955,-1.1974,-1.1994,-1.2012,-1.203,-1.2053,-1.2083,-1.2094,-1.2121,-1.2147,-1.2186,-1.2202,-1.2224,-1.2225,-1.223,-1.2232,-1.2233,-1.2232,-1.2204,-1.223,-1.223,-1.223,-1.223,-1.223,0,-1.1907,-1.1924,-1.1947,-1.1977,-1.1997,-1.2004,-1.2029,-1.2045,-1.2069,-1.2092,-1.2114,-1.2145,-1.2171,-1.2195,-1.2222,-1.2235,-1.224,-1.2242,-1.2241,-1.2244,-1.223,-1.2224,-1.2237,-1.2237,-1.2237,-1.2237,-1.2237,-1.2237,-1.1919,-1.1946,-1.1958,-1.1994,-1.2011,-1.2039,-1.2052,-1.2071,-1.2089,-1.2123,-1.2145,-1.216,-1.2183,-1.2212,-1.2237,-1.2243,-1.2252,-1.2253,-1.226,-1.2246,-1.2245,-1.2244,-1.2238,-1.2255,-1.2255,-1.2272,-1.2272,-1.2272]},{"header":{"parameterUnit":"m.s-1","parameterCategory":1,"la1":30.2991,"la2":30.254,"lo1":-89.0895,"lo2":-89.0444,"dy":0.0017,"dx":0.0017,"nx":28,"ny":28,"refTime":"2024-03-29T09:00:00:Z","depth":0,"parameterNumber":3,"parameterNumberName":"V-component_of_WINDS"},"data":[0,0,0,0,0,0,0,0,0,0,0,0,0,0,0,0,0,0,0,0,0,0,0,0,0,0,0,0,0,0,0,0,0,0,0,0,0,0,0,0,0,0,0,0,0,0,0,0,0,0,0,0,0,0,0,0,0,0,3.9216,3.9217,0,3.9268,3.9269,3.9269,3.9232,3.9231,3.9229,3.9227,3.9277,3.928,3.9283,0,0,0,0,0,0,0,0,0,0,0,0,0,3.9084,3.9087,3.9216,3.9217,3.9218,3.9268,3.9269,3.9269,3.9233,3.9231,3.9229,3.9227,3.9276,3.9279,3.9283,0,0,0,0,0,0,0,0,0,0,0,0,0,3.9139,3.9087,3.9216,3.9205,3.9205,3.9268,3.9269,3.9269,3.9233,3.9231,3.9228,3.9226,3.9275,3.9279,3.9283,3.9358,0,0,3.9296,3.9298,0,0,0,0,0,0,0,0,3.9136,3.9144,3.9206,3.9206,3.9206,3.9241,3.924,3.9299,3.9234,3.9222,3.9227,3.9225,3.9267,3.9272,3.9287,3.9361,3.9363,3.9297,3.9299,3.9301,3.9302,0,0,0,0,0,0,0,3.9132,3.9141,3.9237,3.9207,3.9207,3.9197,3.9202,3.9251,3.9257,3.9223,3.9221,3.9227,3.9266,3.9283,3.9287,3.9364,3.9297,3.93,3.9303,3.9305,3.9503,3.9506,0,0,0,0,0,0,3.913,3.9139,3.9235,3.9238,3.9164,3.9202,3.9207,3.9232,3.9257,3.9258,3.9229,3.9225,3.9276,3.9283,3.9289,3.9379,3.9301,3.9305,3.9307,3.95,3.9504,3.9507,0,0,0,0,0,0,3.9127,3.9139,3.9233,3.9188,3.9199,3.9207,3.9235,3.9235,3.9251,3.9262,3.9262,3.9245,3.9275,3.9283,3.9342,3.9381,3.9307,3.9311,3.9497,3.9501,3.9505,3.956,0,0,0,0,0,0,3.9123,3.9138,3.9167,3.9189,3.9202,3.9286,3.9237,3.9237,3.9259,3.9254,3.9277,3.9278,3.9274,3.9336,3.9346,3.9385,3.9314,3.9494,3.9499,3.9504,3.9555,3.9566,3.9575,0,0,0,0,0,3.9119,3.9179,3.9169,3.918,3.9238,3.9288,3.9295,3.929,3.9262,3.9291,3.9298,3.9277,3.9375,3.9342,3.9353,3.9394,3.9491,3.9497,3.9503,3.955,3.9564,3.9575,0,0,0,0,0,0,3.916,3.9182,3.917,3.924,3.9263,3.9282,3.9318,3.9304,3.9334,3.9328,3.9319,3.9325,3.9387,3.9396,3.9359,3.9469,3.9428,3.9437,3.946,3.9473,3.9483,3.9479,3.9318,0,0,0,0,0,3.9178,3.9217,3.9234,3.9294,3.9306,3.931,3.9332,3.9326,3.9349,3.9358,3.9369,3.9391,3.9427,3.945,3.9483,3.9556,3.9561,3.959,3.96,3.9608,3.9616,3.9656,3.9669,3.9527,3.9527,3.9526,0,0,3.9214,3.9231,3.9256,3.9302,3.9319,3.936,3.9318,3.9363,3.9393,3.9364,3.9421,3.943,3.9454,3.9521,3.955,3.953,3.9656,3.9616,3.9622,3.9625,3.9663,3.9677,3.9689,3.9531,3.953,3.9529,0,0,3.93,3.9317,3.9369,3.9388,3.9415,3.9417,3.943,3.9452,3.9458,3.9515,3.9494,3.9529,3.9591,3.9609,3.9627,3.9722,3.9704,3.9733,3.9785,3.9824,3.9836,3.9846,3.988,3.9893,3.9741,3.9741,3.9741,0,3.9341,3.9403,3.9398,3.9444,3.9466,3.9443,3.9496,3.9514,3.9549,3.9564,3.9542,3.962,3.9634,3.9705,3.9729,3.9744,3.9758,3.9731,3.9835,3.9844,3.9854,3.9887,3.99,3.9744,3.9744,3.9744,3.9743,0,3.9452,3.9495,3.9534,3.9572,3.9597,3.9646,3.9648,3.9675,3.9667,3.9672,3.9731,3.9748,3.9785,3.9802,3.9794,3.9872,3.9859,3.9836,3.9795,3.9871,3.9902,3.9914,3.9749,3.9748,3.9747,3.9746,0,0,3.9565,3.9601,3.9615,3.9632,3.9661,3.9694,3.9742,3.978,3.9803,3.9829,3.9869,3.9923,3.9902,3.9922,3.9916,3.9951,4.0027,3.9923,3.9924,3.9942,4.0114,4.0132,4.0147,4.0015,4.0017,4.0019,4.0113,0,3.9654,3.974,3.9738,3.9817,3.9857,3.9837,3.988,3.9902,3.9908,3.9943,3.9949,3.9988,3.9957,3.9969,4.0002,4.001,4.0061,4.0003,4.0052,4.0054,4.0047,4.0163,4.0181,4.0268,4.0125,4.0127,4.0128,0,3.9768,3.98,3.9885,3.9909,3.9926,3.9964,3.9999,4.0032,4.0057,4.0059,4.0083,4.0072,4.0121,4.0079,4.0147,4.0108,4.0128,4.0135,4.0138,4.0142,4.0096,4.017,4.0296,4.0309,4.0147,4.0145,4.0144,0,3.9843,3.9907,3.9966,3.9981,4.0011,4.0038,4.0052,4.0074,4.0098,4.0128,4.0143,4.0178,4.0197,4.0225,4.0224,4.0193,4.0293,4.025,4.0296,4.0296,4.0317,4.0316,4.0448,4.033,4.033,4.0329,4.0329,0,3.9942,3.9995,4.0,4.0037,4.0095,4.0092,4.0149,4.016,4.018,4.0218,4.0202,4.0238,4.0234,4.027,4.027,4.0326,4.0335,4.0338,4.0337,4.0339,4.0339,4.0352,4.0346,4.0333,4.0332,4.0331,4.0331,0,4.0036,4.0041,4.0105,4.0128,4.0135,4.0178,4.0197,4.0232,4.0238,4.0286,4.0297,4.0305,4.0347,4.0349,4.0396,4.0396,4.0465,4.0457,4.0457,4.0456,4.0501,4.0497,4.0646,4.0666,4.0535,4.0536,4.0537,0,4.0099,4.0139,4.0168,4.0193,4.0208,4.0248,4.0273,4.0271,4.0297,4.0329,4.036,4.04,4.0432,4.05,4.051,4.0546,4.0539,4.0589,4.0545,4.0546,4.0541,4.0539,4.0543,4.0598,4.0599,4.0601,4.0601,0,4.021,4.0211,4.0248,4.0286,4.0316,4.0345,4.0372,4.0393,4.0395,4.0425,4.0468,4.0493,4.0543,4.0583,4.0619,4.0632,4.0617,4.0616,4.0628,4.0631,4.063,4.0632,4.0481,4.0612,4.0611,4.061,4.061,4.0609,4.029,4.0326,4.0352,4.0394,4.0414,4.0441,4.0475,4.0486,4.0522,4.0563,4.056,4.0608,4.0632,4.0679,4.0696,4.0733,4.0715,4.0733,4.0738,4.0742,4.0748,4.0624,4.0739,4.0739,4.0738,4.0738,4.0738,0,4.0402,4.0418,4.0456,4.0496,4.0529,4.0514,4.0543,4.0571,4.0615,4.0639,4.0672,4.0722,4.0762,4.0776,4.0814,4.0841,4.0836,4.0852,4.085,4.0853,4.076,4.0746,4.0856,4.0856,4.0856,4.0856,4.0856,4.0856,4.0463,4.0523,4.0528,4.0598,4.0613,4.0662,4.068,4.0704,4.0724,4.0782,4.0815,4.0824,4.0845,4.0885,4.0921,4.0924,4.0939,4.0958,4.0958,4.0871,4.0859,4.0848,4.0835,4.0961,4.0961,4.1047,4.1048,4.1049]}]]